Time,TemperatureF,DewpointF,PressureIn,WindDirection,WindDirectionDegrees,WindSpeedMPH,WindSpeedGustMPH,Humidity,HourlyPrecipIn,Conditions,Clouds,dailyrainin,SoftwareType,DateUTC
2013-02-11 00:01:00,32.9,24.6,29.82,WNW,293,10.3,16.1,71,0.00,,,0.00,WUHU216HW,2013-02-11 06:01:00,
2013-02-11 00:06:00,32.9,24.2,29.83,West,270,11.4,16.1,70,0.00,,,0.00,WUHU216HW,2013-02-11 06:06:00,
2013-02-11 00:11:00,32.9,24.2,29.83,WNW,293,12.1,13.2,70,0.00,,,0.00,WUHU216HW,2013-02-11 06:11:00,
2013-02-11 00:16:00,32.9,24.2,29.83,West,270,7.4,13.4,70,0.00,,,0.00,WUHU216HW,2013-02-11 06:16:00,
2013-02-11 00:22:00,32.9,24.2,29.83,WNW,293,10.7,13.4,70,0.00,,,0.00,WUHU216HW,2013-02-11 06:22:00,
2013-02-11 00:27:00,32.9,24.2,29.84,WNW,293,10.5,11.4,70,0.00,,,0.00,WUHU216HW,2013-02-11 06:27:00,
2013-02-11 00:32:00,32.9,24.2,29.84,WNW,293,10.5,11.4,70,0.00,,,0.00,WUHU216HW,2013-02-11 06:32:00,
2013-02-11 00:37:00,32.9,24.2,29.84,WNW,293,10.5,10.5,70,0.00,,,0.00,WUHU216HW,2013-02-11 06:37:00,
2013-02-11 00:58:00,32.4,24.0,29.85,WNW,293,7.8,7.8,71,0.00,,,0.00,WUHU216HW,2013-02-11 06:58:00,
2013-02-11 01:03:00,32.2,24.2,29.85,WNW,293,5.6,7.8,72,0.00,,,0.00,WUHU216HW,2013-02-11 07:03:00,
2013-02-11 01:08:00,32.2,23.9,29.85,WSW,248,8.1,8.1,71,0.00,,,0.00,WUHU216HW,2013-02-11 07:08:00,
2013-02-11 01:13:00,31.9,23.6,29.85,WNW,293,8.3,8.3,71,0.00,,,0.00,WUHU216HW,2013-02-11 07:13:00,
2013-02-11 01:18:00,31.7,23.4,29.85,WNW,293,11.0,11.0,71,0.00,,,0.00,WUHU216HW,2013-02-11 07:18:00,
2013-02-11 01:23:00,31.5,23.2,29.86,WNW,293,6.0,11.0,71,0.00,,,0.00,WUHU216HW,2013-02-11 07:23:00,
2013-02-11 01:28:00,31.3,23.3,29.86,WNW,293,4.0,10.3,72,0.00,,,0.00,WUHU216HW,2013-02-11 07:28:00,
2013-02-11 01:34:00,31.1,23.1,29.86,West,270,6.5,6.5,72,0.00,,,0.00,WUHU216HW,2013-02-11 07:34:00,
2013-02-11 01:39:00,31.1,23.1,29.86,WNW,293,9.4,9.4,72,0.00,,,0.00,WUHU216HW,2013-02-11 07:39:00,
2013-02-11 01:44:00,31.1,23.1,29.87,WNW,293,5.8,9.4,72,0.00,,,0.00,WUHU216HW,2013-02-11 07:44:00,
2013-02-11 01:49:00,31.1,23.1,29.87,WNW,293,5.1,9.4,72,0.00,,,0.00,WUHU216HW,2013-02-11 07:49:00,
2013-02-11 01:54:00,31.0,23.3,29.87,West,270,4.3,6.5,73,0.00,,,0.00,WUHU216HW,2013-02-11 07:54:00,
2013-02-11 02:00:00,30.8,23.1,29.87,WNW,293,4.7,6.0,73,0.00,,,0.00,WUHU216HW,2013-02-11 08:00:00,
2013-02-11 02:05:00,30.8,23.1,29.88,WNW,293,4.5,4.9,73,0.00,,,0.00,WUHU216HW,2013-02-11 08:05:00,
2013-02-11 02:10:00,30.8,23.1,29.88,WNW,293,3.6,4.5,73,0.00,,,0.00,WUHU216HW,2013-02-11 08:10:00,
2013-02-11 02:15:00,30.8,23.4,29.88,West,270,4.3,4.5,74,0.00,,,0.00,WUHU216HW,2013-02-11 08:15:00,
2013-02-11 02:20:00,30.8,23.4,29.89,WNW,293,4.7,4.7,74,0.00,,,0.00,WUHU216HW,2013-02-11 08:20:00,
2013-02-11 02:25:00,31.1,23.5,29.89,WNW,293,5.6,5.6,73,0.00,,,0.00,WUHU216HW,2013-02-11 08:25:00,
2013-02-11 02:30:00,31.1,23.5,29.88,WNW,293,5.4,5.6,73,0.00,,,0.00,WUHU216HW,2013-02-11 08:30:00,
2013-02-11 02:35:00,31.1,23.5,29.88,WNW,293,6.5,6.5,73,0.00,,,0.00,WUHU216HW,2013-02-11 08:35:00,
2013-02-11 02:41:00,31.1,23.5,29.88,West,270,8.9,8.9,73,0.00,,,0.00,WUHU216HW,2013-02-11 08:41:00,
2013-02-11 02:46:00,31.1,23.5,29.89,NW,315,5.8,8.9,73,0.00,,,0.00,WUHU216HW,2013-02-11 08:46:00,
2013-02-11 02:51:00,31.1,23.5,29.89,WNW,293,6.9,6.9,73,0.00,,,0.00,WUHU216HW,2013-02-11 08:51:00,
2013-02-11 02:56:00,31.0,23.3,29.90,WNW,293,5.4,6.9,73,0.00,,,0.00,WUHU216HW,2013-02-11 08:56:00,
2013-02-11 03:01:00,30.8,23.1,29.90,WNW,293,3.4,6.9,73,0.00,,,0.00,WUHU216HW,2013-02-11 09:01:00,
2013-02-11 03:06:00,30.6,23.0,29.91,WNW,293,6.3,6.3,73,0.00,,,0.00,WUHU216HW,2013-02-11 09:06:00,
2013-02-11 03:11:00,30.6,23.0,29.91,WNW,293,6.0,6.3,73,0.00,,,0.00,WUHU216HW,2013-02-11 09:11:00,
2013-02-11 03:16:00,30.2,22.6,29.91,WNW,293,6.3,6.3,73,0.00,,,0.00,WUHU216HW,2013-02-11 09:16:00,
2013-02-11 03:21:00,30.2,22.9,29.90,WNW,293,6.5,8.1,74,0.00,,,0.00,WUHU216HW,2013-02-11 09:21:00,
2013-02-11 03:26:00,30.2,22.9,29.91,WNW,293,5.8,8.1,74,0.00,,,0.00,WUHU216HW,2013-02-11 09:26:00,
2013-02-11 03:32:00,30.2,22.9,29.91,WNW,293,6.3,6.5,74,0.00,,,0.00,WUHU216HW,2013-02-11 09:32:00,
2013-02-11 03:37:00,30.1,22.8,29.91,NW,315,4.5,6.3,74,0.00,,,0.00,WUHU216HW,2013-02-11 09:37:00,
2013-02-11 03:42:00,29.9,22.6,29.92,WNW,293,4.3,4.7,74,0.00,,,0.00,WUHU216HW,2013-02-11 09:42:00,
2013-02-11 03:47:00,29.9,22.9,29.92,WNW,293,4.7,5.1,75,0.00,,,0.00,WUHU216HW,2013-02-11 09:47:00,
2013-02-11 03:52:00,29.9,22.2,29.91,WNW,293,6.9,6.9,73,0.00,,,0.00,WUHU216HW,2013-02-11 09:52:00,
2013-02-11 03:57:00,29.7,22.4,29.92,WNW,293,5.6,6.9,74,0.00,,,0.00,WUHU216HW,2013-02-11 09:57:00,
2013-02-11 04:02:00,29.2,21.9,29.93,West,270,4.0,6.9,74,0.00,,,0.00,WUHU216HW,2013-02-11 10:02:00,
2013-02-11 04:07:00,29.2,22.2,29.93,West,270,6.5,6.5,75,0.00,,,0.00,WUHU216HW,2013-02-11 10:07:00,
2013-02-11 04:13:00,29.2,22.2,29.93,WNW,293,4.3,6.9,75,0.00,,,0.00,WUHU216HW,2013-02-11 10:13:00,
2013-02-11 04:18:00,29.2,21.9,29.94,West,270,5.4,6.9,74,0.00,,,0.00,WUHU216HW,2013-02-11 10:18:00,
2013-02-11 04:23:00,29.3,22.1,29.95,WNW,293,6.9,9.6,74,0.00,,,0.00,WUHU216HW,2013-02-11 10:23:00,
2013-02-11 04:29:00,29.5,22.2,29.95,WNW,293,9.4,9.6,74,0.00,,,0.00,WUHU216HW,2013-02-11 10:29:00,
2013-02-11 04:34:00,29.5,22.2,29.95,WNW,293,6.3,9.4,74,0.00,,,0.00,WUHU216HW,2013-02-11 10:34:00,
2013-02-11 04:39:00,29.5,22.2,29.95,WNW,293,6.7,6.9,74,0.00,,,0.00,WUHU216HW,2013-02-11 10:39:00,
2013-02-11 04:44:00,29.5,22.2,29.96,WNW,293,3.6,6.9,74,0.00,,,0.00,WUHU216HW,2013-02-11 10:44:00,
2013-02-11 04:49:00,29.5,22.2,29.96,WNW,293,4.0,6.7,74,0.00,,,0.00,WUHU216HW,2013-02-11 10:49:00,
2013-02-11 04:54:00,29.5,22.5,29.96,WNW,293,3.8,4.0,75,0.00,,,0.00,WUHU216HW,2013-02-11 10:54:00,
2013-02-11 04:59:00,29.5,22.5,29.97,WNW,293,3.4,4.0,75,0.00,,,0.00,WUHU216HW,2013-02-11 10:59:00,
2013-02-11 05:04:00,29.5,22.5,29.97,WNW,293,2.5,4.0,75,0.00,,,0.00,WUHU216HW,2013-02-11 11:04:00,
2013-02-11 05:09:00,29.5,22.5,29.97,WNW,293,3.4,4.3,75,0.00,,,0.00,WUHU216HW,2013-02-11 11:09:00,
2013-02-11 05:14:00,29.5,22.5,29.97,West,270,3.4,4.7,75,0.00,,,0.00,WUHU216HW,2013-02-11 11:14:00,
2013-02-11 05:19:00,29.5,22.5,29.97,WNW,293,3.8,4.7,75,0.00,,,0.00,WUHU216HW,2013-02-11 11:19:00,
2013-02-11 05:24:00,29.5,22.2,29.98,West,270,4.9,4.9,74,0.00,,,0.00,WUHU216HW,2013-02-11 11:24:00,
2013-02-11 05:29:00,29.5,21.9,29.98,WNW,293,4.7,4.9,73,0.00,,,0.00,WUHU216HW,2013-02-11 11:29:00,
2013-02-11 05:34:00,29.3,21.8,29.98,WNW,293,3.1,4.9,73,0.00,,,0.00,WUHU216HW,2013-02-11 11:34:00,
2013-02-11 05:40:00,29.2,21.9,29.98,WNW,293,4.7,4.7,74,0.00,,,0.00,WUHU216HW,2013-02-11 11:40:00,
2013-02-11 05:45:00,29.2,21.9,29.98,WNW,293,2.9,4.7,74,0.00,,,0.00,WUHU216HW,2013-02-11 11:45:00,
2013-02-11 05:50:00,29.0,21.7,29.98,West,270,2.5,4.7,74,0.00,,,0.00,WUHU216HW,2013-02-11 11:50:00,
2013-02-11 05:55:00,29.0,21.7,29.99,WNW,293,2.5,4.3,74,0.00,,,0.00,WUHU216HW,2013-02-11 11:55:00,
2013-02-11 06:00:00,29.0,21.7,29.99,West,270,4.0,4.3,74,0.00,,,0.00,WUHU216HW,2013-02-11 12:00:00,
2013-02-11 06:05:00,29.2,21.9,29.98,West,270,9.8,9.8,74,0.00,,,0.00,WUHU216HW,2013-02-11 12:05:00,
2013-02-11 06:10:00,29.2,21.6,29.99,West,270,8.5,9.8,73,0.00,,,0.00,WUHU216HW,2013-02-11 12:10:00,
2013-02-11 06:15:00,28.8,21.5,29.99,West,270,8.5,9.8,74,0.00,,,0.00,WUHU216HW,2013-02-11 12:15:00,
2013-02-11 06:20:00,28.8,21.5,29.99,WNW,293,5.8,8.5,74,0.00,,,0.00,WUHU216HW,2013-02-11 12:20:00,
2013-02-11 06:25:00,28.6,21.3,29.99,WNW,293,4.0,8.5,74,0.00,,,0.00,WUHU216HW,2013-02-11 12:25:00,
2013-02-11 06:30:00,28.4,21.3,30.00,West,270,4.9,6.5,74,0.00,,,0.00,WUHU216HW,2013-02-11 12:30:00,
2013-02-11 06:35:00,28.4,21.3,30.00,WNW,293,4.3,6.5,74,0.00,,,0.00,WUHU216HW,2013-02-11 12:35:00,
2013-02-11 06:40:00,28.3,21.1,30.00,WNW,293,4.0,5.8,74,0.00,,,0.00,WUHU216HW,2013-02-11 12:40:00,
2013-02-11 06:45:00,28.3,21.1,30.00,WNW,293,4.3,5.8,74,0.00,,,0.00,WUHU216HW,2013-02-11 12:45:00,
2013-02-11 06:50:00,28.3,21.1,30.00,WNW,293,5.8,6.9,74,0.00,,,0.00,WUHU216HW,2013-02-11 12:50:00,
2013-02-11 06:55:00,28.3,21.1,30.00,WNW,293,5.4,6.9,74,0.00,,,0.00,WUHU216HW,2013-02-11 12:55:00,
2013-02-11 07:01:00,28.1,20.9,30.00,WNW,293,4.7,6.3,74,0.00,,,0.00,WUHU216HW,2013-02-11 13:01:00,
2013-02-11 07:06:00,28.1,21.2,30.01,WNW,293,3.8,5.4,75,0.00,,,0.00,WUHU216HW,2013-02-11 13:06:00,
2013-02-11 07:11:00,27.9,21.0,30.00,WNW,293,2.2,4.7,75,0.00,,,0.00,WUHU216HW,2013-02-11 13:11:00,
2013-02-11 07:16:00,27.7,20.8,30.01,West,270,2.7,3.1,75,0.00,,,0.00,WUHU216HW,2013-02-11 13:16:00,
2013-02-11 07:21:00,27.9,21.0,30.01,WNW,293,3.4,3.4,75,0.00,,,0.00,WUHU216HW,2013-02-11 13:21:00,
2013-02-11 07:26:00,28.1,21.2,30.01,WNW,293,3.8,4.3,75,0.00,,,0.00,WUHU216HW,2013-02-11 13:26:00,
2013-02-11 07:31:00,28.1,21.2,30.01,WNW,293,7.4,7.4,75,0.00,,,0.00,WUHU216HW,2013-02-11 13:31:00,
2013-02-11 07:36:00,27.9,20.7,30.02,WNW,293,3.4,7.4,74,0.00,,,0.00,WUHU216HW,2013-02-11 13:36:00,
2013-02-11 07:41:00,27.7,20.8,30.02,West,270,4.0,7.4,75,0.00,,,0.00,WUHU216HW,2013-02-11 13:41:00,
2013-02-11 07:46:00,27.7,20.5,30.02,WNW,293,4.9,4.9,74,0.00,,,0.00,WUHU216HW,2013-02-11 13:46:00,
2013-02-11 07:51:00,27.9,21.0,30.02,West,270,3.4,4.9,75,0.00,,,0.00,WUHU216HW,2013-02-11 13:51:00,
2013-02-11 07:56:00,27.7,20.8,30.02,WNW,293,4.3,4.3,75,0.00,,,0.00,WUHU216HW,2013-02-11 13:56:00,
2013-02-11 08:02:00,28.1,20.9,30.03,WNW,293,5.4,5.4,74,0.00,,,0.00,WUHU216HW,2013-02-11 14:02:00,
2013-02-11 08:07:00,28.1,20.9,30.03,WNW,293,3.8,5.4,74,0.00,,,0.00,WUHU216HW,2013-02-11 14:07:00,
2013-02-11 08:12:00,28.1,20.9,30.03,WNW,293,2.5,4.5,74,0.00,,,0.00,WUHU216HW,2013-02-11 14:12:00,
2013-02-11 08:17:00,28.1,20.9,30.04,WNW,293,2.7,3.8,74,0.00,,,0.00,WUHU216HW,2013-02-11 14:17:00,
2013-02-11 08:22:00,28.4,21.3,30.04,WNW,293,3.4,4.0,74,0.00,,,0.00,WUHU216HW,2013-02-11 14:22:00,
2013-02-11 08:27:00,28.6,21.3,30.04,WNW,293,2.7,4.0,74,0.00,,,0.00,WUHU216HW,2013-02-11 14:27:00,
2013-02-11 08:32:00,28.8,21.5,30.05,WNW,293,4.0,4.0,74,0.00,,,0.00,WUHU216HW,2013-02-11 14:32:00,
2013-02-11 08:37:00,29.2,21.6,30.05,WNW,293,3.8,4.0,73,0.00,,,0.00,WUHU216HW,2013-02-11 14:37:00,
2013-02-11 08:42:00,29.3,21.8,30.05,WNW,293,6.7,6.7,73,0.00,,,0.00,WUHU216HW,2013-02-11 14:42:00,
2013-02-11 08:47:00,30.2,22.0,30.05,WNW,293,2.5,6.7,71,0.00,,,0.00,WUHU216HW,2013-02-11 14:47:00,
2013-02-11 08:52:00,31.1,22.5,30.05,West,270,5.4,5.4,70,0.00,,,0.00,WUHU216HW,2013-02-11 14:52:00,
2013-02-11 08:57:00,31.3,22.7,30.06,WNW,293,4.3,5.4,70,0.00,,,0.00,WUHU216HW,2013-02-11 14:57:00,
2013-02-11 09:02:00,31.7,23.0,30.06,WNW,293,3.6,5.4,70,0.00,,,0.00,WUHU216HW,2013-02-11 15:02:00,
2013-02-11 09:07:00,32.0,23.0,30.06,WNW,293,5.6,5.6,69,0.00,,,0.00,WUHU216HW,2013-02-11 15:07:00,
2013-02-11 09:13:00,32.2,23.2,30.06,West,270,5.4,5.6,69,0.00,,,0.00,WUHU216HW,2013-02-11 15:13:00,
2013-02-11 09:18:00,32.4,23.1,30.06,West,270,6.0,6.0,68,0.00,,,0.00,WUHU216HW,2013-02-11 15:18:00,
2013-02-11 09:23:00,32.4,23.4,30.07,West,270,5.4,8.1,69,0.00,,,0.00,WUHU216HW,2013-02-11 15:23:00,
2013-02-11 09:28:00,32.0,22.7,30.06,West,270,6.0,8.1,68,0.00,,,0.00,WUHU216HW,2013-02-11 15:28:00,
2013-02-11 09:33:00,33.1,24.0,30.06,WNW,293,5.1,6.7,69,0.00,,,0.00,WUHU216HW,2013-02-11 15:33:00,
2013-02-11 09:38:00,33.3,23.9,30.06,West,270,3.8,5.4,68,0.00,,,0.00,WUHU216HW,2013-02-11 15:38:00,
2013-02-11 09:43:00,33.5,23.2,30.07,West,270,4.7,5.1,66,0.00,,,0.00,WUHU216HW,2013-02-11 15:43:00,
2013-02-11 09:48:00,33.3,23.5,30.06,WNW,293,4.3,4.7,67,0.00,,,0.00,WUHU216HW,2013-02-11 15:48:00,
2013-02-11 09:53:00,33.7,23.8,30.06,West,270,3.6,4.5,67,0.00,,,0.00,WUHU216HW,2013-02-11 15:53:00,
2013-02-11 09:58:00,34.0,23.4,30.06,WNW,293,4.5,6.0,65,0.00,,,0.00,WUHU216HW,2013-02-11 15:58:00,
2013-02-11 10:03:00,34.0,23.4,30.06,West,270,3.4,6.0,65,0.00,,,0.00,WUHU216HW,2013-02-11 16:03:00,
2013-02-11 10:08:00,34.0,23.4,30.07,West,270,3.8,4.5,65,0.00,,,0.00,WUHU216HW,2013-02-11 16:08:00,
2013-02-11 10:13:00,34.6,23.6,30.07,West,270,4.3,4.3,64,0.00,,,0.00,WUHU216HW,2013-02-11 16:13:00,
2013-02-11 10:19:00,34.6,23.9,30.07,West,270,4.0,4.3,65,0.00,,,0.00,WUHU216HW,2013-02-11 16:19:00,
2013-02-11 10:24:00,34.6,24.3,30.07,WNW,293,4.3,4.5,66,0.00,,,0.00,WUHU216HW,2013-02-11 16:24:00,
2013-02-11 10:29:00,34.7,23.8,30.08,WNW,293,3.6,6.0,64,0.00,,,0.00,WUHU216HW,2013-02-11 16:29:00,
2013-02-11 10:34:00,35.3,25.0,30.08,WNW,293,3.4,6.0,66,0.00,,,0.00,WUHU216HW,2013-02-11 16:34:00,
2013-02-11 10:39:00,34.7,23.4,30.08,West,270,5.4,5.4,63,0.00,,,0.00,WUHU216HW,2013-02-11 16:39:00,
2013-02-11 10:44:00,34.9,24.3,30.08,WNW,293,2.5,5.4,65,0.00,,,0.00,WUHU216HW,2013-02-11 16:44:00,
2013-02-11 10:49:00,35.6,24.7,30.08,West,270,2.9,6.0,64,0.00,,,0.00,WUHU216HW,2013-02-11 16:49:00,
2013-02-11 10:54:00,35.6,24.7,30.08,West,270,5.4,6.0,64,0.00,,,0.00,WUHU216HW,2013-02-11 16:54:00,
2013-02-11 10:59:00,35.8,24.5,30.08,WNW,293,4.0,5.4,63,0.00,,,0.00,WUHU216HW,2013-02-11 16:59:00,
2013-02-11 11:04:00,36.0,24.0,30.09,WNW,293,3.6,5.4,61,0.00,,,0.00,WUHU216HW,2013-02-11 17:04:00,
2013-02-11 11:09:00,36.2,24.5,30.09,WNW,293,2.5,3.6,62,0.00,,,0.00,WUHU216HW,2013-02-11 17:09:00,
2013-02-11 11:14:00,36.4,24.6,30.09,WNW,293,2.2,3.6,62,0.00,,,0.00,WUHU216HW,2013-02-11 17:14:00,
2013-02-11 11:19:00,36.4,25.4,30.09,WNW,293,3.4,3.6,64,0.00,,,0.00,WUHU216HW,2013-02-11 17:19:00,
2013-02-11 11:24:00,35.8,24.9,30.09,West,270,3.1,3.4,64,0.00,,,0.00,WUHU216HW,2013-02-11 17:24:00,
2013-02-11 11:29:00,35.6,24.7,30.09,West,270,4.7,4.7,64,0.00,,,0.00,WUHU216HW,2013-02-11 17:29:00,
2013-02-11 11:34:00,35.5,24.8,30.09,WSW,248,1.8,4.7,65,0.00,,,0.00,WUHU216HW,2013-02-11 17:34:00,
2013-02-11 11:39:00,35.3,24.7,30.09,WNW,293,5.4,5.4,65,0.00,,,0.00,WUHU216HW,2013-02-11 17:39:00,
2013-02-11 11:45:00,34.9,24.3,30.09,West,270,4.7,5.4,65,0.00,,,0.00,WUHU216HW,2013-02-11 17:45:00,
2013-02-11 11:50:00,35.1,24.8,30.09,WNW,293,3.8,5.4,66,0.00,,,0.00,WUHU216HW,2013-02-11 17:50:00,
2013-02-11 11:55:00,35.3,25.0,30.09,West,270,4.5,4.9,66,0.00,,,0.00,WUHU216HW,2013-02-11 17:55:00,
2013-02-11 12:01:00,35.3,25.0,30.09,WNW,293,2.9,4.7,66,0.00,,,0.00,WUHU216HW,2013-02-11 18:01:00,
2013-02-11 12:06:00,35.5,24.8,30.09,West,270,3.8,4.0,65,0.00,,,0.00,WUHU216HW,2013-02-11 18:06:00,
2013-02-11 12:11:00,35.3,25.4,30.09,West,270,4.3,6.3,67,0.00,,,0.00,WUHU216HW,2013-02-11 18:11:00,
2013-02-11 12:16:00,35.6,25.4,30.09,WNW,293,3.4,6.3,66,0.00,,,0.00,WUHU216HW,2013-02-11 18:16:00,
2013-02-11 12:21:00,36.0,25.4,30.09,WSW,248,5.6,5.6,65,0.00,,,0.00,WUHU216HW,2013-02-11 18:21:00,
2013-02-11 12:26:00,36.0,25.0,30.09,WNW,293,2.9,5.6,64,0.00,,,0.00,WUHU216HW,2013-02-11 18:26:00,
2013-02-11 12:31:00,36.2,25.2,30.09,WSW,248,4.0,5.6,64,0.00,,,0.00,WUHU216HW,2013-02-11 18:31:00,
2013-02-11 12:36:00,36.5,26.3,30.08,West,270,2.5,4.0,66,0.00,,,0.00,WUHU216HW,2013-02-11 18:36:00,
2013-02-11 12:41:00,36.4,25.8,30.08,WNW,293,6.0,6.0,65,0.00,,,0.00,WUHU216HW,2013-02-11 18:41:00,
2013-02-11 12:46:00,36.5,25.9,30.08,West,270,5.8,6.0,65,0.00,,,0.00,WUHU216HW,2013-02-11 18:46:00,
2013-02-11 12:51:00,36.5,25.9,30.08,West,270,3.6,6.0,65,0.00,,,0.00,WUHU216HW,2013-02-11 18:51:00,
2013-02-11 12:56:00,37.1,26.7,30.08,West,270,3.6,5.8,66,0.00,,,0.00,WUHU216HW,2013-02-11 18:56:00,
2013-02-11 13:01:00,37.4,26.7,30.08,West,270,3.8,3.8,65,0.00,,,0.00,WUHU216HW,2013-02-11 19:01:00,
2013-02-11 13:06:00,37.4,26.4,30.08,West,270,4.0,4.0,64,0.00,,,0.00,WUHU216HW,2013-02-11 19:06:00,
2013-02-11 13:11:00,37.1,26.0,30.08,West,270,4.0,4.5,64,0.00,,,0.00,WUHU216HW,2013-02-11 19:11:00,
2013-02-11 13:17:00,38.0,26.8,30.08,West,270,4.0,4.5,64,0.00,,,0.00,WUHU216HW,2013-02-11 19:17:00,
2013-02-11 13:22:00,37.3,25.8,30.08,West,270,3.6,5.8,63,0.00,,,0.00,WUHU216HW,2013-02-11 19:22:00,
2013-02-11 13:27:00,37.4,26.4,30.08,West,270,4.5,5.8,64,0.00,,,0.00,WUHU216HW,2013-02-11 19:27:00,
2013-02-11 13:32:00,37.1,26.4,30.08,West,270,4.9,4.9,65,0.00,,,0.00,WUHU216HW,2013-02-11 19:32:00,
2013-02-11 13:37:00,37.8,27.1,30.08,West,270,6.9,6.9,65,0.00,,,0.00,WUHU216HW,2013-02-11 19:37:00,
2013-02-11 13:42:00,37.8,26.3,30.08,West,270,4.0,6.9,63,0.00,,,0.00,WUHU216HW,2013-02-11 19:42:00,
2013-02-11 13:47:00,38.0,27.2,30.08,West,270,4.5,6.9,65,0.00,,,0.00,WUHU216HW,2013-02-11 19:47:00,
2013-02-11 13:52:00,38.3,26.8,30.08,West,270,3.4,4.5,63,0.00,,,0.00,WUHU216HW,2013-02-11 19:52:00,
2013-02-11 13:57:00,38.3,26.8,30.08,West,270,3.6,4.5,63,0.00,,,0.00,WUHU216HW,2013-02-11 19:57:00,
2013-02-11 14:02:00,38.3,26.8,30.08,West,270,4.3,4.3,63,0.00,,,0.00,WUHU216HW,2013-02-11 20:02:00,
2013-02-11 14:07:00,38.5,26.9,30.08,WNW,293,3.6,4.3,63,0.00,,,0.00,WUHU216HW,2013-02-11 20:07:00,
2013-02-11 14:12:00,38.3,26.4,30.08,West,270,3.8,4.3,62,0.00,,,0.00,WUHU216HW,2013-02-11 20:12:00,
2013-02-11 14:17:00,38.5,26.9,30.08,West,270,5.4,6.3,63,0.00,,,0.00,WUHU216HW,2013-02-11 20:17:00,
2013-02-11 14:22:00,38.5,26.9,30.08,West,270,2.7,6.3,63,0.00,,,0.00,WUHU216HW,2013-02-11 20:22:00,
2013-02-11 14:28:00,38.7,27.1,30.08,WNW,293,2.7,5.4,63,0.00,,,0.00,WUHU216HW,2013-02-11 20:28:00,
2013-02-11 14:33:00,38.5,26.9,30.07,West,270,3.8,4.3,63,0.00,,,0.00,WUHU216HW,2013-02-11 20:33:00,
2013-02-11 14:38:00,38.7,27.1,30.07,West,270,2.0,4.3,63,0.00,,,0.00,WUHU216HW,2013-02-11 20:38:00,
2013-02-11 14:43:00,39.1,27.5,30.07,West,270,4.5,4.5,63,0.00,,,0.00,WUHU216HW,2013-02-11 20:43:00,
2013-02-11 14:48:00,39.2,27.6,30.07,West,270,2.2,4.5,63,0.00,,,0.00,WUHU216HW,2013-02-11 20:48:00,
2013-02-11 14:53:00,38.9,26.9,30.07,WNW,293,5.1,5.1,62,0.00,,,0.00,WUHU216HW,2013-02-11 20:53:00,
2013-02-11 14:58:00,38.9,26.9,30.07,West,270,3.8,5.1,62,0.00,,,0.00,WUHU216HW,2013-02-11 20:58:00,
2013-02-11 15:01:00,39.1,27.5,30.07,West,270,2.5,2.5,63,0.00,,,0.00,WUHU216HW,2013-02-11 21:01:00,
2013-02-11 15:03:00,39.1,27.5,30.07,West,270,2.5,5.1,63,0.00,,,0.00,WUHU216HW,2013-02-11 21:03:00,
2013-02-11 15:08:00,39.1,27.5,30.07,West,270,2.5,3.8,63,0.00,,,0.00,WUHU216HW,2013-02-11 21:08:00,
2013-02-11 15:31:00,39.2,27.6,30.07,West,270,4.7,4.7,63,0.00,,,0.00,WUHU216HW,2013-02-11 21:31:00,
2013-02-11 15:36:00,39.2,26.0,30.07,West,270,2.7,4.7,59,0.00,,,0.00,WUHU216HW,2013-02-11 21:36:00,
2013-02-11 15:41:00,39.2,26.5,30.07,WNW,293,2.9,4.7,60,0.00,,,0.00,WUHU216HW,2013-02-11 21:41:00,
2013-02-11 15:46:00,39.1,26.6,30.06,West,270,1.6,3.6,61,0.00,,,0.00,WUHU216HW,2013-02-11 21:46:00,
2013-02-11 15:51:00,39.1,26.3,30.07,West,270,1.6,3.6,60,0.00,,,0.00,WUHU216HW,2013-02-11 21:51:00,
2013-02-11 15:56:00,39.2,26.5,30.07,West,270,1.1,3.4,60,0.00,,,0.00,WUHU216HW,2013-02-11 21:56:00,
2013-02-11 16:01:00,39.1,26.6,30.07,West,270,4.9,4.9,61,0.00,,,0.00,WUHU216HW,2013-02-11 22:01:00,
2013-02-11 16:07:00,38.9,25.3,30.07,West,270,3.1,4.9,58,0.00,,,0.00,WUHU216HW,2013-02-11 22:07:00,
2013-02-11 16:12:00,38.9,25.8,30.07,West,270,3.4,4.9,59,0.00,,,0.00,WUHU216HW,2013-02-11 22:12:00,
2013-02-11 16:17:00,38.9,25.8,30.07,West,270,2.0,4.0,59,0.00,,,0.00,WUHU216HW,2013-02-11 22:17:00,
2013-02-11 16:22:00,38.9,25.8,30.06,West,270,2.9,4.0,59,0.00,,,0.00,WUHU216HW,2013-02-11 22:22:00,
2013-02-11 16:27:00,38.7,25.1,30.06,West,270,4.9,4.9,58,0.00,,,0.00,WUHU216HW,2013-02-11 22:27:00,
2013-02-11 16:32:00,38.7,25.6,30.06,West,270,4.0,4.9,59,0.00,,,0.00,WUHU216HW,2013-02-11 22:32:00,
2013-02-11 16:37:00,38.3,25.7,30.06,WNW,293,1.6,4.9,60,0.00,,,0.00,WUHU216HW,2013-02-11 22:37:00,
2013-02-11 16:42:00,38.5,25.8,30.06,West,270,2.9,2.9,60,0.00,,,0.00,WUHU216HW,2013-02-11 22:42:00,
2013-02-11 16:47:00,38.3,26.0,30.06,West,270,1.8,2.9,61,0.00,,,0.00,WUHU216HW,2013-02-11 22:47:00,
2013-02-11 16:52:00,38.2,25.5,30.06,West,270,1.8,2.9,60,0.00,,,0.00,WUHU216HW,2013-02-11 22:52:00,
2013-02-11 16:57:00,38.0,25.3,30.06,WNW,293,1.6,2.5,60,0.00,,,0.00,WUHU216HW,2013-02-11 22:57:00,
2013-02-11 17:02:00,38.0,25.8,30.06,West,270,2.5,2.5,61,0.00,,,0.00,WUHU216HW,2013-02-11 23:02:00,
2013-02-11 17:07:00,37.8,25.6,30.06,West,270,1.8,2.5,61,0.00,,,0.00,WUHU216HW,2013-02-11 23:07:00,
2013-02-11 17:13:00,37.6,25.4,30.06,West,270,1.1,2.5,61,0.00,,,0.00,WUHU216HW,2013-02-11 23:13:00,
2013-02-11 17:18:00,37.3,25.0,30.06,WNW,293,0.4,1.8,61,0.00,,,0.00,WUHU216HW,2013-02-11 23:18:00,
2013-02-11 17:23:00,37.1,25.3,30.06,West,270,3.4,3.4,62,0.00,,,0.00,WUHU216HW,2013-02-11 23:23:00,
2013-02-11 17:28:00,36.7,24.9,30.06,West,270,2.0,3.4,62,0.00,,,0.00,WUHU216HW,2013-02-11 23:28:00,
2013-02-11 17:33:00,36.4,24.6,30.06,West,270,1.1,2.5,62,0.00,,,0.00,WUHU216HW,2013-02-11 23:33:00,
2013-02-11 17:38:00,36.2,24.5,30.06,West,270,2.2,2.2,62,0.00,,,0.00,WUHU216HW,2013-02-11 23:38:00,
2013-02-11 17:44:00,35.5,24.5,30.06,West,270,1.3,2.2,64,0.00,,,0.00,WUHU216HW,2013-02-11 23:44:00,
2013-02-11 17:49:00,34.9,24.3,30.06,West,270,2.5,2.7,65,0.00,,,0.00,WUHU216HW,2013-02-11 23:49:00,
2013-02-11 17:54:00,34.4,24.1,30.07,West,270,2.5,2.7,66,0.00,,,0.00,WUHU216HW,2013-02-11 23:54:00,
2013-02-11 17:59:00,34.0,24.1,30.07,West,270,1.1,2.5,67,0.00,,,0.00,WUHU216HW,2013-02-11 23:59:00,
2013-02-11 18:04:00,33.7,23.8,30.07,West,270,0.4,2.5,67,0.00,,,0.00,WUHU216HW,2013-02-12 00:04:00,
2013-02-11 18:10:00,33.1,23.3,30.08,WNW,293,0.0,1.1,67,0.00,,,0.00,WUHU216HW,2013-02-12 00:10:00,
2013-02-11 18:15:00,32.8,23.0,30.08,North,0,0.2,0.4,67,0.00,,,0.00,WUHU216HW,2013-02-12 00:15:00,
2013-02-11 18:20:00,32.0,23.4,30.08,North,0,1.1,1.1,70,0.00,,,0.00,WUHU216HW,2013-02-12 00:20:00,
2013-02-11 18:25:00,31.7,23.0,30.08,North,0,1.1,1.1,70,0.00,,,0.00,WUHU216HW,2013-02-12 00:25:00,
2013-02-11 18:30:00,31.1,22.5,30.09,North,0,0.7,1.1,70,0.00,,,0.00,WUHU216HW,2013-02-12 00:30:00,
2013-02-11 18:36:00,30.6,22.3,30.10,North,0,0.4,1.6,71,0.00,,,0.00,WUHU216HW,2013-02-12 00:36:00,
2013-02-11 18:41:00,30.1,21.8,30.10,North,0,0.4,1.6,71,0.00,,,0.00,WUHU216HW,2013-02-12 00:41:00,
2013-02-11 18:46:00,29.5,21.6,30.10,North,0,0.2,0.4,72,0.00,,,0.00,WUHU216HW,2013-02-12 00:46:00,
2013-02-11 18:51:00,29.2,21.2,30.10,North,0,0.0,0.4,72,0.00,,,0.00,WUHU216HW,2013-02-12 00:51:00,
2013-02-11 18:56:00,28.4,20.9,30.10,North,0,0.0,0.4,73,0.00,,,0.00,WUHU216HW,2013-02-12 00:56:00,
2013-02-11 19:01:00,28.3,20.7,30.10,North,0,0.0,0.0,73,0.00,,,0.00,WUHU216HW,2013-02-12 01:01:00,
2013-02-11 19:06:00,27.7,20.2,30.10,North,0,0.0,0.0,73,0.00,,,0.00,WUHU216HW,2013-02-12 01:06:00,
2013-02-11 19:11:00,27.4,19.5,30.10,North,0,0.4,0.4,72,0.00,,,0.00,WUHU216HW,2013-02-12 01:11:00,
2013-02-11 19:16:00,27.0,19.2,30.10,North,0,0.9,0.9,72,0.00,,,0.00,WUHU216HW,2013-02-12 01:16:00,
2013-02-11 19:21:00,26.8,19.6,30.11,North,0,0.0,0.9,74,0.00,,,0.00,WUHU216HW,2013-02-12 01:21:00,
2013-02-11 19:26:00,26.6,19.7,30.10,North,0,0.0,0.4,75,0.00,,,0.00,WUHU216HW,2013-02-12 01:26:00,
2013-02-11 19:31:00,26.5,19.5,30.10,North,0,0.2,0.2,75,0.00,,,0.00,WUHU216HW,2013-02-12 01:31:00,
2013-02-11 19:36:00,26.3,19.4,30.10,North,0,0.0,0.2,75,0.00,,,0.00,WUHU216HW,2013-02-12 01:36:00,
2013-02-11 19:41:00,25.9,19.0,30.10,North,0,0.0,0.0,75,0.00,,,0.00,WUHU216HW,2013-02-12 01:41:00,
2013-02-11 19:47:00,25.6,19.0,30.10,North,0,0.4,0.4,76,0.00,,,0.00,WUHU216HW,2013-02-12 01:47:00,
2013-02-11 19:52:00,25.6,19.0,30.10,North,0,0.4,0.4,76,0.00,,,0.00,WUHU216HW,2013-02-12 01:52:00,
2013-02-11 19:57:00,25.4,18.8,30.10,North,0,0.2,0.4,76,0.00,,,0.00,WUHU216HW,2013-02-12 01:57:00,
2013-02-11 20:02:00,25.4,18.8,30.10,North,0,0.4,0.4,76,0.00,,,0.00,WUHU216HW,2013-02-12 02:02:00,
2013-02-11 20:07:00,25.0,18.8,30.10,North,0,0.2,0.4,77,0.00,,,0.00,WUHU216HW,2013-02-12 02:07:00,
2013-02-11 20:12:00,24.8,18.6,30.10,North,0,0.0,0.4,77,0.00,,,0.00,WUHU216HW,2013-02-12 02:12:00,
2013-02-11 20:17:00,24.7,18.5,30.10,North,0,0.4,0.4,77,0.00,,,0.00,WUHU216HW,2013-02-12 02:17:00,
2013-02-11 20:22:00,24.3,18.1,30.10,North,0,0.0,0.4,77,0.00,,,0.00,WUHU216HW,2013-02-12 02:22:00,
2013-02-11 20:27:00,24.1,17.9,30.11,North,0,0.0,0.4,77,0.00,,,0.00,WUHU216HW,2013-02-12 02:27:00,
2013-02-11 20:32:00,24.1,17.9,30.11,North,0,0.0,0.0,77,0.00,,,0.00,WUHU216HW,2013-02-12 02:32:00,
2013-02-11 20:37:00,24.1,17.9,30.10,North,0,0.0,0.0,77,0.00,,,0.00,WUHU216HW,2013-02-12 02:37:00,
2013-02-11 20:42:00,23.9,17.8,30.10,North,0,0.0,0.0,77,0.00,,,0.00,WUHU216HW,2013-02-12 02:42:00,
2013-02-11 20:47:00,23.6,17.5,30.10,North,0,0.0,0.0,77,0.00,,,0.00,WUHU216HW,2013-02-12 02:47:00,
2013-02-11 20:52:00,23.4,17.3,30.10,North,0,0.0,0.0,77,0.00,,,0.00,WUHU216HW,2013-02-12 02:52:00,
2013-02-11 20:58:00,23.0,16.9,30.10,North,0,0.0,0.0,77,0.00,,,0.00,WUHU216HW,2013-02-12 02:58:00,
2013-02-11 21:03:00,23.0,16.9,30.10,North,0,0.0,0.0,77,0.00,,,0.00,WUHU216HW,2013-02-12 03:03:00,
2013-02-11 21:08:00,22.9,16.8,30.10,North,0,0.0,0.0,77,0.00,,,0.00,WUHU216HW,2013-02-12 03:08:00,
2013-02-11 21:13:00,22.7,16.6,30.11,North,0,0.0,0.0,77,0.00,,,0.00,WUHU216HW,2013-02-12 03:13:00,
2013-02-11 21:18:00,22.7,16.6,30.10,North,0,0.0,0.0,77,0.00,,,0.00,WUHU216HW,2013-02-12 03:18:00,
2013-02-11 21:23:00,22.5,16.4,30.10,North,0,0.0,0.0,77,0.00,,,0.00,WUHU216HW,2013-02-12 03:23:00,
2013-02-11 21:28:00,22.3,16.2,30.11,North,0,0.0,0.0,77,0.00,,,0.00,WUHU216HW,2013-02-12 03:28:00,
2013-02-11 21:33:00,22.3,16.2,30.11,North,0,0.0,0.0,77,0.00,,,0.00,WUHU216HW,2013-02-12 03:33:00,
2013-02-11 21:38:00,22.1,16.0,30.11,North,0,0.0,0.0,77,0.00,,,0.00,WUHU216HW,2013-02-12 03:38:00,
2013-02-11 21:43:00,22.1,16.0,30.11,North,0,0.0,0.0,77,0.00,,,0.00,WUHU216HW,2013-02-12 03:43:00,
2013-02-11 21:48:00,22.1,16.0,30.11,North,0,0.0,0.0,77,0.00,,,0.00,WUHU216HW,2013-02-12 03:48:00,
2013-02-11 21:53:00,22.3,16.2,30.11,North,0,0.0,0.0,77,0.00,,,0.00,WUHU216HW,2013-02-12 03:53:00,
2013-02-11 21:58:00,22.5,16.4,30.11,North,0,0.0,0.0,77,0.00,,,0.00,WUHU216HW,2013-02-12 03:58:00,
2013-02-11 22:04:00,22.5,16.4,30.11,WNW,293,0.0,0.0,77,0.00,,,0.00,WUHU216HW,2013-02-12 04:04:00,
2013-02-11 22:10:00,22.7,16.6,30.11,WNW,293,0.0,0.0,77,0.00,,,0.00,WUHU216HW,2013-02-12 04:10:00,
2013-02-11 22:15:00,22.5,16.4,30.11,WNW,293,0.0,0.0,77,0.00,,,0.00,WUHU216HW,2013-02-12 04:15:00,
2013-02-11 22:21:00,22.3,16.2,30.12,WNW,293,0.0,0.0,77,0.00,,,0.00,WUHU216HW,2013-02-12 04:21:00,
2013-02-11 22:26:00,22.5,16.4,30.12,WNW,293,0.0,0.0,77,0.00,,,0.00,WUHU216HW,2013-02-12 04:26:00,
2013-02-11 22:31:00,22.7,16.6,30.11,WNW,293,0.0,0.0,77,0.00,,,0.00,WUHU216HW,2013-02-12 04:31:00,
2013-02-11 22:36:00,22.9,16.8,30.11,WNW,293,0.0,0.0,77,0.00,,,0.00,WUHU216HW,2013-02-12 04:36:00,
2013-02-11 22:41:00,23.0,17.2,30.12,WNW,293,0.0,0.0,78,0.00,,,0.00,WUHU216HW,2013-02-12 04:41:00,
2013-02-11 22:46:00,22.9,16.8,30.12,WSW,248,0.2,0.2,77,0.00,,,0.00,WUHU216HW,2013-02-12 04:46:00,
2013-02-11 22:52:00,22.7,16.6,30.12,WSW,248,0.0,0.2,77,0.00,,,0.00,WUHU216HW,2013-02-12 04:52:00,
2013-02-11 22:57:00,22.5,16.4,30.12,WSW,248,0.0,0.2,77,0.00,,,0.00,WUHU216HW,2013-02-12 04:57:00,
2013-02-11 23:00:00,22.5,16.4,30.12,WSW,248,0.4,0.4,77,0.00,,,0.00,WUHU216HW,2013-02-12 05:00:00,
2013-02-11 23:01:00,22.3,16.2,30.12,WSW,248,0.2,0.4,77,0.00,,,0.00,WUHU216HW,2013-02-12 05:01:00,
2013-02-11 23:06:00,22.3,16.2,30.12,SW,225,1.1,1.8,77,0.00,,,0.00,WUHU216HW,2013-02-12 05:06:00,
2013-02-11 23:11:00,22.1,16.3,30.12,SW,225,0.4,1.8,78,0.00,,,0.00,WUHU216HW,2013-02-12 05:11:00,
2013-02-11 23:16:00,22.1,16.0,30.12,SW,225,0.2,1.1,77,0.00,,,0.00,WUHU216HW,2013-02-12 05:16:00,
2013-02-11 23:22:00,22.1,16.0,30.12,SW,225,0.4,1.1,77,0.00,,,0.00,WUHU216HW,2013-02-12 05:22:00,
2013-02-11 23:27:00,22.0,16.1,30.12,SW,225,1.1,1.1,78,0.00,,,0.00,WUHU216HW,2013-02-12 05:27:00,
2013-02-11 23:32:00,22.0,16.1,30.11,SW,225,1.1,1.1,78,0.00,,,0.00,WUHU216HW,2013-02-12 05:32:00,
2013-02-11 23:37:00,22.0,16.1,30.11,SW,225,0.7,1.1,78,0.00,,,0.00,WUHU216HW,2013-02-12 05:37:00,
2013-02-11 23:43:00,22.0,16.1,30.12,SW,225,0.0,1.1,78,0.00,,,0.00,WUHU216HW,2013-02-12 05:43:00,
2013-02-11 23:48:00,22.0,16.1,30.11,SW,225,0.0,0.0,78,0.00,,,0.00,WUHU216HW,2013-02-12 05:48:00,
2013-02-11 23:53:00,21.8,15.9,30.11,SW,225,0.0,0.0,78,0.00,,,0.00,WUHU216HW,2013-02-12 05:53:00,
2013-02-11 23:58:00,21.6,15.8,30.12,SSW,203,0.0,0.0,78,0.00,,,0.00,WUHU216HW,2013-02-12 05:58:00,